Location: ??
(34.7252°N, 135.5457°E)
Time: 18:00:39
(UTC+00:00)

Cosmos 2360 Rocket - Pass Details

Date: 24 September 2020
Orbit: 835 x 844 km, 71.0° (Epoch: 27 October)

Event Time Altitude Azimuth Distance (km) Brightness Sun altitude
Exits shadow 18:04:10 32° 121° (ESE) 1,412 3.5 -33.5°
Maximum altitude 18:04:59 33° 103° (ESE) 1,372 3.6 -33.3°
Drops below altitude 10° 18:10:00 10° 41° (NE) 2,465 5.3 -32.4°
Sets 18:12:39 0° 32° (NNE) 3,402 6.1 -31.9°
